Temp
7 7 7 7 7 7 8 8 8 8 8 8 8 8 8 8 8 8 8 8 8 8 9 9 9 9 9 9 9 9 10 10 11 9 10 18 23 22 20 20 21 20 20 20 19 19 19 19 19 20 20 20 21 21 22 22 23 23 23 22 21 22 22 24 25 26 26 26 27 28 29 30 27 26 26 26 25 24 24 23 23 24 24 23 23 22 22 22
7 7 7 7 7 7 7 7 7 7 7 8 8 8 8 7 7 7 8 8 8 8 9 9 9 9 8 9 10 10 10 10 9 10 15 23 23 22 21 20 20 19 19 19 19 19 19 20 19 20 20 21 21 22 22 23 24 23 23 22 22 23 23 25 26 26 27 27 27 28 29 30 28 27 27 25 24 24 24 22 22 22 22 22 22 22 21 21
7 7 7 7 7 7 7 7 7 7 7 7 7 8 7 7 7 7 7 8 8 8 8 9 9 8 8 9 10 11 10 9 12 16 21 24 23 23 22 20 20 19 19 20 20 20 19 20 20 20 21 21 22 22 22 24 24 24 23 22 22 24 24 25 26 26 27 27 28 28 28 30 30 29 27 25 24 24 24 23 22 22 21 22 21 21 21 21
7 7 8 7 7 7 7 7 7 7 7 7 7 7 7 7 7 7 8 8 8 8 8 8 8 8 9 9 11 11 10 12 18 22 23 23 23 24 22 20 20 20 20 20 20 20 20 20 21 21 21 21 22 22 22 23 24 24 24 23 24 24 24 25 26 27 28 28 28 27 28 30 30 29 26 25 24 24 23 24 23 22 21 21 21 21 21 21
7 7 7 7 7 7 7 7 7 7 7 7 8 7 7 7 8 8 8 8 7 8 8 8 8 8 8 10 11 10 11 17 22 22 23 24 24 24 23 21 20 20 19 19 20 20 20 20 21 21 21 21 21 22 22 23 24 24 24 24 25 25 25 26 27 27 28 28 28 28 29 29 29 28 25 25 26 25 24 24 24 22 22 21 21 21 21 21
7 7 7 7 7 7 7 7 7 7 7 7 8 7 7 8 8 7 7 8 7 7 8 8 8 8 9 11 12 11 14 20 21 22 23 23 23 24 24 22 21 20 19 19 20 20 20 20 21 21 21 21 21 22 22 24 24 23 24 25 25 25 25 26 27 27 28 28 28 28 29 29 29 29 26 27 28 26 25 24 23 22 22 22 21 21 21 21
7 7 7 7 7 7 7 7 7 7 7 7 7 7 7 7 7 7 7 7 7 8 8 8 8 8 9 12 12 12 14 18 20 22 23 23 23 23 23 22 21 20 19 19 19 20 20 20 20 21 21 21 22 22 23 24 24 23 24 25 25 25 25 26 27 27 27 27 28 29 29 29 30 29 27 27 27 26 25 24 23 22 22 22 21 21 21 21
7 7 7 7 7 7 7 7 7 7 7 8 9 9 9 8 8 8 7 8 7 7 7 8 8 8 9 11 13 14 14 18 22 23 22 23 23 22 22 21 20 19 19 19 19 19 20 20 20 21 21 22 22 23 23 24 24 24 24 25 25 26 26 26 27 27 27 28 28 29 30 29 29 29 27 26 25 24 24 23 23 22 22 22 21 21 21 21
7 7 7 6 6 6 7 7 7 7 8 9 10 11 11 11 10 9 9 9 8 7 7 8 8 8 10 10 12 16 18 21 23 23 22 23 23 22 22 21 19 19 19 19 19 20 20 21 21 21 22 22 23 23 24 23 23 24 25 25 26 26 27 27 27 27 27 28 29 28 29 30 29 28 27 26 25 23 23 22 22 22 22 21 21 21 21 21
7 7 7 7 7 6 7 7 7 8 8 9 11 12 12 12 12 11 10 9 9 8 7 7 7 9 10 11 13 16 20 22 22 22 22 22 23 22 21 21 20 19 19 19 19 20 21 21 22 22 22 23 24 24 24 24 24 25 25 25 26 25 26 27 27 28 27 28 29 28 29 29 29 29 27 25 25 23 23 22 22 22 21 21 21 21 21 21
7 6 7 7 7 7 7 7 8 9 11 11 12 12 13 13 12 12 11 10 9 8 8 7 8 9 9 11 14 17 20 21 21 22 21 21 22 22 22 21 20 20 20 19 20 20 21 21 22 22 23 24 24 24 25 25 25 25 25 25 26 25 26 26 27 27 27 28 29 29 29 29 29 29 28 26 25 23 22 22 21 21 21 21 21 20 21 21
6 6 6 6 6 7 8 9 10 11 12 13 13 13 13 13 13 12 11 11 10 8 8 7 8 8 9 10 13 18 21 21 21 22 21 21 21 22 23 22 22 21 21 20 20 21 22 22 22 22 23 23 24 24 25 25 25 25 25 25 25 26 26 26 27 27 27 28 29 29 28 27 28 29 28 26 25 24 22 22 21 21 21 21 21 20 21 19
6 6 6 6 7 8 9 11 12 12 12 13 13 13 14 14 13 12 11 12 10 8 8 8 8 8 9 12 15 19 21 21 21 21 20 21 21 21 22 22 22 22 22 22 22 22 22 22 22 22 23 23 23 24 25 25 25 25 25 24 24 24 25 26 27 27 28 28 29 28 24 25 28 29 28 26 25 24 23 22 22 21 21 20 20 20 19 17
6 6 6 6 7 9 10 12 13 13 13 13 13 14 14 14 13 12 12 12 10 8 8 8 8 8 10 14 18 20 20 20 20 19 20 21 21 21 21 22 22 22 22 22 23 24 23 23 23 22 23 24 24 25 25 24 24 24 24 24 24 23 23 27 28 27 28 27 29 28 23 24 28 29 28 25 24 24 23 23 22 21 21 20 20 18 17 16
6 6 6 7 8 9 11 13 13 13 13 13 14 14 14 14 13 13 12 12 10 9 8 8 8 9 11 14 18 20 20 19 19 20 20 20 21 21 21 22 22 22 22 22 23 24 24 24 23 23 24 24 25 24 23 23 23 24 23 22 23 22 23 26 27 27 28 27 28 27 24 25 27 28 29 26 24 25 23 23 23 22 21 20 19 17 16 16
6 6 6 7 8 10 12 13 13 13 13 14 14 15 14 14 14 13 12 11 10 9 8 9 9 10 12 16 19 20 20 20 21 22 22 21 21 21 22 23 22 22 22 23 23 23 24 24 23 24 24 24 24 23 22 22 22 23 22 21 22 22 22 24 26 27 28 27 27 27 25 25 27 28 28 26 24 25 24 23 23 22 21 19 17 16 17 17
6 6 6 7 9 11 12 13 13 13 13 14 14 15 15 15 14 13 12 10 10 9 9 10 10 10 14 18 19 21 21 21 22 23 23 22 22 22 22 23 22 22 22 22 23 23 23 24 24 24 23 23 23 22 22 20 20 21 21 21 21 22 22 23 25 27 27 27 27 27 26 26 28 29 29 26 25 25 24 23 23 22 20 19 17 16 17 17
6 7 7 8 10 11 12 12 12 12 13 13 14 15 15 15 14 12 11 9 9 9 10 11 11 13 17 18 19 21 22 22 23 23 24 24 23 23 23 23 23 23 22 22 23 23 23 23 23 23 22 22 22 22 21 20 20 21 21 21 21 22 22 22 24 26 27 27 26 26 25 26 28 28 28 27 25 25 24 24 23 21 19 18 17 17 18 17
7 8 9 9 10 11 12 12 11 11 11 13 14 14 14 13 12 11 10 10 11 13 14 13 12 17 20 20 19 20 21 23 23 23 24 24 23 23 23 23 23 23 22 22 22 22 23 22 22 21 21 21 21 21 20 20 21 21 21 21 21 21 22 23 24 26 27 26 26 25 25 26 27 27 28 27 25 25 24 23 22 20 18 17 17 17 17 17
7 9 9 10 10 11 12 12 11 11 10 11 12 13 14 14 14 13 11 10 12 15 19 16 14 18 20 20 20 21 22 23 23 23 24 24 24 23 23 23 23 22 22 21 22 22 22 21 20 20 20 20 21 21 21 21 21 22 22 21 21 21 22 23 25 26 26 25 25 26 25 26 26 26 27 27 25 24 24 23 21 19 18 17 17 17 17 17
8 9 9 10 10 11 12 12 11 11 10 8 8 10 14 16 16 16 14 13 13 14 17 18 16 17 19 20 21 21 21 22 22 23 23 24 24 23 22 22 22 21 21 22 22 21 21 20 20 20 20 21 22 21 21 21 21 21 21 21 21 21 22 23 24 25 26 25 24 25 25 25 26 26 27 26 26 25 24 22 20 19 17 17 18 17 17 16
8 9 9 9 10 11 13 12 12 11 10 9 7 8 12 15 17 17 16 16 15 15 16 17 17 17 18 19 20 21 20 20 21 22 23 24 23 22 22 22 21 21 21 21 21 21 20 19 20 21 21 21 21 21 20 21 21 21 21 20 20 21 22 23 25 25 25 24 24 25 24 25 26 26 26 26 26 25 23 22 20 18 17 18 18 17 17 16
7 9 8 8 9 11 13 12 12 12 11 10 8 9 12 16 17 16 15 15 16 17 17 16 16 17 18 18 20 20 19 19 20 21 23 23 22 22 22 21 21 21 21 21 20 20 19 20 21 21 20 20 21 21 20 20 20 20 20 20 20 21 22 22 24 25 25 24 24 24 23 24 25 26 26 24 22 23 22 21 19 17 18 18 17 17 16 16
7 8 7 7 8 10 13 13 12 12 11 10 10 13 16 17 16 15 15 15 16 18 19 18 18 18 18 19 20 20 19 20 21 22 24 23 22 22 22 22 21 21 21 21 21 20 20 21 22 21 20 20 21 21 20 20 20 20 21 21 21 22 22 23 23 24 24 24 24 23 22 23 24 25 25 21 20 20 20 19 18 17 18 17 16 16 16 16
7 7 6 6 7 10 12 12 11 11 11 11 13 16 16 16 16 15 15 15 16 17 19 20 19 20 20 20 21 21 20 21 21 22 24 23 23 22 22 22 22 21 21 21 20 20 20 22 22 22 21 21 21 21 21 20 20 20 21 22 22 23 23 24 23 23 22 23 24 23 21 21 23 25 24 21 19 19 18 18 17 17 17 16 16 16 16 16
6 6 6 5 6 9 12 11 10 11 11 13 15 16 15 17 17 16 16 15 15 17 19 20 21 21 22 21 21 22 20 21 22 23 24 24 24 23 22 22 22 21 21 21 21 20 21 22 22 22 22 21 21 21 21 21 20 20 22 24 23 23 24 24 23 22 21 22 24 24 22 21 23 24 22 20 19 18 18 18 17 17 16 16 16 16 16 16
6 6 6 5 5 7 9 10 10 10 12 15 15 14 15 17 16 16 16 15 16 18 19 20 21 22 23 22 22 22 20 22 23 23 24 24 24 24 22 21 22 22 22 22 21 21 22 23 22 22 22 21 21 21 22 22 21 21 24 25 24 24 24 24 23 22 21 22 23 24 23 21 22 21 19 19 18 17 18 18 17 17 17 16 16 16 16 16
6 6 5 6 6 6 7 8 7 8 13 15 14 14 16 17 17 17 16 15 18 21 21 21 22 23 23 23 22 22 22 23 23 23 24 24 24 24 22 21 22 22 23 22 20 21 23 23 23 22 21 21 21 22 22 22 22 23 25 25 25 25 24 24 23 22 22 22 22 23 23 22 21 20 19 19 18 17 18 18 18 18 17 17 16 16 16 16
7 6 5 6 7 8 8 7 6 10 14 14 14 15 16 16 17 17 15 16 20 22 22 22 22 23 23 22 22 23 23 24 23 23 24 24 24 24 22 22 22 22 23 22 21 22 23 23 24 23 22 21 22 23 23 23 23 25 26 25 24 24 24 24 23 22 22 21 21 22 22 21 21 21 20 19 18 17 18 18 18 18 17 17 16 16 16 16
8 6 6 5 6 8 8 7 10 13 14 14 14 15 16 17 17 16 14 17 19 21 23 22 22 23 23 21 22 22 23 23 24 23 23 23 24 24 23 23 23 22 22 22 22 22 23 23 24 24 23 23 24 24 24 24 25 25 25 24 23 23 23 23 22 21 21 21 21 22 23 22 21 21 21 20 19 18 18 18 18 18 18 17 16 16 16 16
8 8 7 5 6 7 7 9 13 14 13 13 14 16 17 17 16 14 15 18 19 20 22 22 22 23 22 21 22 22 22 23 24 23 22 23 22 22 23 23 22 22 21 21 22 22 23 23 24 25 25 25 25 25 24 25 25 25 24 23 22 22 22 22 21 21 20 20 21 22 22 22 21 21 21 21 20 19 19 19 18 18 18 17 16 16 16 16
9 9 9 7 6 6 8 12 14 13 13 13 14 15 16 15 14 14 16 18 19 21 21 21 22 23 22 22 22 22 22 23 23 23 22 22 21 21 21 21 21 21 20 20 21 22 23 23 24 25 26 26 25 24 24 25 24 24 23 22 21 21 21 21 20 21 20 21 22 22 22 21 21 20 20 20 19 19 20 20 19 18 17 17 16 16 16 16
10 11 11 11 9 9 11 14 14 12 13 13 14 15 15 14 14 15 15 17 19 20 20 20 22 22 22 22 22 22 22 22 23 23 22 22 21 20 21 21 22 21 20 20 21 21 22 23 23 24 25 26 25 24 23 23 24 23 22 21 21 20 20 20 20 20 20 21 21 22 22 21 20 20 20 19 19 19 20 20 19 19 18 17 16 16 16 16
12 12 12 13 12 13 13 13 13 12 12 13 15 15 14 14 14 15 16 16 18 20 20 21 21 21 22 22 22 22 22 22 23 22 22 21 20 20 20 21 22 22 21 21 20 20 21 21 23 24 24 25 26 25 24 24 24 24 23 22 21 21 20 20 20 20 20 21 21 21 21 20 20 20 20 19 19 19 20 19 19 19 18 17 17 17 16 16
12 13 13 13 14 15 14 13 13 11 11 13 15 14 14 14 14 15 16 17 19 19 20 20 20 20 21 22 22 22 21 22 22 22 22 21 20 20 20 21 22 22 21 20 20 21 20 21 23 25 25 25 26 25 25 24 23 23 23 22 21 22 22 21 20 20 20 20 21 20 20 19 19 20 19 19 19 19 19 19 18 18 18 17 17 17 16 16
13 13 13 14 15 15 14 13 13 11 12 14 14 13 13 14 15 16 17 18 18 18 18 19 19 20 20 21 22 21 21 21 20 20 21 21 20 21 21 21 22 22 22 21 21 21 20 21 24 25 24 25 26 25 25 24 23 23 22 22 22 23 23 21 20 20 20 20 20 19 19 18 19 19 19 19 19 19 19 18 18 18 17 17 16 16 16 16
12 12 12 13 15 15 14 14 13 12 13 14 14 13 13 14 15 16 17 18 18 18 18 17 18 20 19 20 21 21 20 20 19 19 20 20 20 20 20 21 21 21 22 21 21 21 21 21 23 24 24 25 25 25 25 25 25 23 22 22 23 22 22 21 20 20 20 20 20 19 18 18 18 19 19 18 18 18 18 17 17 17 17 16 16 15 16 16
10 10 12 14 15 15 14 14 13 12 13 13 13 13 13 15 16 17 17 17 17 18 17 16 18 20 19 19 20 20 19 19 19 19 19 19 19 19 19 20 21 21 21 22 21 21 21 21 22 24 24 25 25 24 24 25 25 25 24 24 23 21 21 21 20 20 19 19 20 19 18 18 18 18 18 18 18 18 17 17 17 17 16 16 16 15 15 15
9 11 14 16 16 16 15 14 13 13 13 13 12 13 14 15 16 17 17 17 17 17 17 17 18 19 19 19 20 20 20 19 19 19 19 18 18 19 19 19 20 20 21 22 21 20 21 20 21 23 24 24 24 22 22 22 24 25 24 24 22 22 21 21 20 20 20 19 19 19 19 18 17 16 16 17 18 17 16 16 16 16 16 15 15 15 15 15
10 12 15 16 16 16 15 14 13 13 13 12 12 13 14 15 15 17 17 17 17 18 17 18 19 19 19 20 20 20 20 19 18 18 18 18 18 19 19 19 20 20 20 21 20 19 20 20 20 22 23 23 22 21 21 21 22 23 22 22 21 21 21 21 20 20 20 20 19 19 19 17 15 15 15 15 16 16 15 15 16 16 15 15 15 14 14 14
10 14 15 16 16 16 15 14 13 13 13 12 13 13 14 15 16 16 17 18 18 18 18 18 19 19 19 19 19 20 20 19 18 18 18 18 18 19 19 20 20 19 19 20 20 20 20 20 20 21 22 21 21 21 21 21 21 21 21 21 20 20 21 21 20 20 20 20 19 20 19 16 15 15 14 15 15 16 15 15 14 14 14 14 14 14 14 14
12 14 15 16 16 15 14 13 13 13 13 13 14 14 15 16 16 16 17 17 17 18 19 19 19 19 19 19 19 19 20 19 19 18 18 19 18 18 20 20 20 20 20 19 19 20 19 19 20 20 20 20 21 21 21 21 20 20 20 20 20 20 21 21 21 20 20 20 19 19 19 16 14 15 14 14 15 15 15 14 14 14 13 14 14 14 14 14
13 14 15 16 16 16 15 13 13 13 13 14 14 15 15 15 15 16 16 17 17 18 19 19 19 19 19 19 19 19 19 19 19 19 18 19 19 19 20 20 20 20 19 18 18 19 19 19 19 20 19 20 21 20 20 20 20 20 19 19 19 20 20 20 20 20 20 19 19 19 18 16 14 15 15 14 14 14 14 14 14 14 13 14 14 14 14 14
12 12 14 15 16 16 14 13 13 13 13 13 13 13 14 15 15 15 15 16 17 17 17 18 19 19 18 19 19 19 19 19 19 19 19 19 20 20 20 20 21 20 19 19 19 20 19 18 18 19 19 20 20 20 20 20 19 19 19 18 18 20 20 20 19 20 20 19 19 20 18 15 15 15 15 15 15 14 14 14 14 14 14 14 14 14 13 14
11 12 14 15 15 15 14 13 12 12 12 12 12 13 13 14 15 15 15 16 16 16 16 17 18 18 17 18 18 18 19 19 19 19 19 19 20 20 19 20 21 20 19 19 19 19 19 18 18 18 18 18 18 19 19 18 18 18 18 18 18 19 20 20 19 21 20 18 18 19 16 14 14 15 14 14 14 14 14 13 13 13 13 14 13 13 13 13
13 13 14 14 14 14 13 13 12 12 12 11 11 12 12 13 14 15 15 15 15 15 16 17 17 17 16 17 17 17 17 18 19 18 18 18 19 19 18 19 19 19 19 18 18 18 17 16 17 17 17 17 18 18 18 17 17 17 17 18 18 18 19 19 20 20 19 18 17 15 15 15 14 14 14 14 14 14 13 13 13 13 13 13 13 13 13 13
13 14 14 14 14 13 13 13 12 12 12 12 11 11 11 12 13 14 15 15 15 16 16 16 16 16 16 16 16 15 15 16 17 17 17 17 18 18 17 17 18 18 19 18 17 18 17 15 15 16 16 16 16 17 18 17 17 16 16 17 18 18 20 20 19 18 17 18 17 14 14 15 14 14 14 13 13 13 13 13 12 12 12 12 12 12 12 11
13 14 14 13 13 13 13 13 13 12 12 12 11 11 11 11 12 13 14 14 15 15 15 15 15 15 15 15 15 15 15 16 16 16 16 16 17 18 18 17 17 17 18 17 16 17 17 15 14 15 15 15 15 16 17 16 16 15 15 16 16 17 18 19 17 15 16 18 17 14 14 14 13 13 12 12 12 11 11 11 11 11 10 10 10 10 10 10
13 14 14 13 13 13 13 13 13 12 12 12 11 11 11 11 11 12 14 14 14 15 15 14 14 15 15 15 15 14 14 15 15 15 15 15 16 17 17 17 17 17 18 17 16 16 16 14 14 14 15 14 14 14 15 15 15 14 14 14 14 15 15 15 15 14 14 15 14 13 13 12 11 11 10 10 10 10 10 10 10 10 9 9 9 9 9 9
12 13 13 13 13 13 13 13 12 12 12 12 11 11 11 11 11 12 13 14 13 14 14 13 13 14 15 14 14 14 14 14 14 14 15 15 15 16 17 17 17 17 17 17 16 15 16 15 14 14 15 14 13 14 14 14 14 13 13 13 14 14 14 14 14 13 13 13 12 12 11 11 10 10 10 10 10 10 9 9 9 9 8 8 8 8 8 8
12 12 12 12 13 13 13 13 12 12 12 11 12 12 11 11 12 12 12 13 13 13 14 14 14 14 14 14 14 14 14 14 14 14 15 15 16 17 17 17 18 17 17 16 16 15 15 14 13 14 15 13 13 13 14 14 14 14 13 13 13 14 14 14 14 14 13 12 12 12 11 10 10 10 9 9 9 8 8 8 8 8 8 8 7 7 7 7
11 12 12 12 13 12 12 13 13 12 12 12 12 13 12 12 12 12 12 13 14 14 14 14 14 14 14 14 14 15 14 14 14 15 15 16 16 17 17 17 18 18 17 16 15 15 15 15 14 14 14 13 12 13 13 14 15 14 12 11 12 13 13 13 13 13 13 12 12 12 11 10 10 9 9 8 8 7 7 7 7 8 7 7 7 7 7 7
Height
806 805 804 803 802 802 801 800 799 798 797 795 793 792 790 789 788 787 786 786 786 785 784 783 783 781 780 778 776 774 772 770 767 768 766 754 749 753 754 755 755 757 758 759 761 762 763 764 765 766 768 769 770 769 767 767 766 772 778 785 789 785 777 768 764 760 758 755 747 742 739 739 744 740 734 735 738 740 743 743 739 736 735 739 742 746 750 754
806 805 804 803 802 801 800 799 798 797 796 794 793 791 789 787 786 785 785 784 784 783 783 782 782 780 778 777 775 773 771 768 766 764 755 747 747 750 752 753 755 756 757 758 759 760 762 763 764 765 767 769 769 767 767 765 764 771 776 782 784 774 763 758 757 755 754 756 749 742 740 739 741 739 734 741 749 744 747 751 746 744 744 744 745 748 752 754
805 804 803 802 801 800 800 798 798 797 795 794 792 790 788 786 785 784 783 783 782 782 781 781 780 779 777 776 774 773 770 768 764 756 747 745 745 746 749 752 753 755 756 757 758 759 761 762 763 765 767 770 768 766 768 765 763 767 771 780 775 761 758 755 753 753 752 752 750 745 740 738 735 734 735 744 751 746 749 751 750 752 750 748 748 749 752 755
805 804 802 801 801 800 799 798 797 796 794 792 790 788 787 785 784 783 782 782 781 780 780 779 779 777 776 775 774 773 771 768 758 748 745 745 744 744 747 750 752 754 755 757 758 759 760 762 763 764 767 771 768 767 768 764 764 764 766 773 764 757 759 754 751 751 748 747 748 747 742 739 733 731 737 743 751 753 749 743 742 747 748 748 749 749 752 755
804 803 801 800 799 798 798 797 796 794 793 791 789 788 786 784 783 782 781 781 779 779 778 778 778 777 776 775 774 772 772 767 753 745 746 745 744 744 745 748 751 753 755 757 758 758 760 761 763 764 768 770 769 768 767 761 761 764 762 762 756 756 759 751 748 748 744 744 746 746 743 739 733 734 739 740 747 749 742 735 734 737 740 743 746 749 752 755
803 801 800 799 798 797 796 795 794 793 792 790 788 787 785 784 783 782 781 779 778 778 778 778 777 776 775 774 773 772 773 766 750 745 746 745 746 744 745 748 750 753 754 756 757 758 760 761 764 766 767 768 769 768 765 758 759 766 762 757 753 753 755 750 746 745 743 744 745 744 739 736 735 737 738 736 738 736 730 730 732 735 737 739 743 748 752 755
801 800 799 798 797 796 795 794 793 792 791 789 788 786 785 784 783 781 779 778 778 777 777 777 776 776 774 774 773 772 774 765 748 745 745 745 746 745 746 748 750 753 754 755 756 758 759 761 764 765 767 768 767 765 762 758 758 765 763 756 751 750 751 748 745 743 742 744 742 737 734 735 736 736 736 735 733 730 729 731 733 736 739 741 745 749 752 754
801 799 798 797 796 795 794 793 792 790 789 788 786 785 784 783 782 780 778 778 777 777 777 776 776 775 774 773 772 772 772 758 745 745 745 745 746 745 747 748 750 751 752 754 754 756 758 761 763 763 768 767 763 761 758 759 759 761 760 754 749 747 746 744 743 743 741 740 738 735 734 734 733 732 735 737 734 731 732 734 735 738 741 745 748 751 753 754
800 799 797 796 795 794 793 791 790 789 788 787 785 784 783 781 780 779 777 777 776 777 776 776 776 775 775 774 774 772 761 748 744 745 745 745 745 745 746 747 749 750 751 753 753 756 757 759 760 760 764 762 759 758 756 761 762 756 754 751 747 746 743 741 741 739 739 737 735 738 737 732 730 731 738 739 735 734 734 736 738 740 744 747 749 751 753 754
800 798 797 795 794 793 791 790 789 788 787 786 784 783 782 780 778 777 776 776 775 776 776 776 775 774 775 773 775 772 753 743 745 743 744 745 745 745 746 746 747 748 750 751 752 754 754 755 755 755 759 758 756 756 754 759 757 749 749 748 746 745 741 740 740 736 737 736 734 739 739 733 729 733 743 741 735 735 737 741 741 742 746 747 749 751 752 753
799 797 796 794 793 792 790 790 788 787 786 784 783 781 780 778 777 776 776 775 775 775 775 776 775 775 775 773 775 767 748 744 745 744 746 747 745 745 745 746 746 747 749 750 751 751 751 751 751 754 758 755 753 753 751 751 750 747 748 748 744 743 741 738 738 736 736 737 733 735 737 734 732 735 740 737 735 736 738 743 744 744 746 746 748 750 751 754
798 797 795 794 792 791 790 789 787 786 784 782 781 780 779 778 776 776 775 775 774 774 774 775 775 774 774 775 771 756 744 745 745 745 748 747 747 745 744 745 745 746 746 747 749 748 749 749 751 758 757 753 755 755 750 745 747 747 747 751 746 742 742 739 736 734 735 736 729 732 741 742 738 735 732 731 734 736 739 743 745 745 746 747 748 751 754 757
798 796 795 793 791 790 788 787 785 784 782 781 780 778 778 776 775 775 774 774 774 773 774 774 774 773 775 770 755 744 744 745 744 744 747 747 747 746 746 745 744 745 745 745 746 745 747 749 752 755 752 754 756 752 746 743 745 747 746 751 751 749 746 737 734 733 733 733 724 732 752 751 740 732 729 730 733 737 743 744 745 747 748 750 751 754 758 760
797 795 794 792 790 789 787 786 784 782 781 780 778 777 776 775 775 773 773 773 772 773 773 774 774 774 775 762 743 741 743 742 742 742 743 745 745 745 745 745 745 745 745 745 744 745 746 747 750 751 749 751 750 746 747 747 748 749 750 751 754 759 751 735 732 734 735 732 722 732 753 751 738 731 727 729 732 736 743 744 745 748 750 755 756 757 760 762
796 794 793 791 789 788 786 784 783 781 779 778 776 775 774 774 773 771 772 772 771 772 772 773 773 773 774 759 741 739 740 738 738 737 740 743 744 744 743 744 744 744 744 744 744 745 745 746 749 752 749 745 745 750 755 756 752 752 759 761 757 759 753 737 731 732 735 733 725 734 751 748 737 729 723 727 731 733 739 743 744 747 752 757 760 760 762 763
795 793 792 790 788 786 785 783 781 779 778 776 775 774 773 772 770 770 771 770 771 772 772 773 772 773 772 755 739 737 736 735 734 734 737 740 742 742 741 742 742 743 744 743 743 744 744 746 747 747 748 747 749 755 761 765 762 756 762 766 760 758 756 745 733 728 730 732 730 735 745 745 736 727 722 725 730 732 737 742 743 747 753 757 761 763 762 763
794 792 791 789 787 785 783 781 780 778 776 775 773 771 770 769 768 768 769 770 771 770 772 772 771 773 764 745 739 737 733 733 733 733 735 736 739 739 739 741 741 742 743 743 743 744 745 746 747 747 748 750 752 756 767 775 772 765 764 765 761 759 759 752 740 729 727 732 735 735 740 740 731 723 721 723 728 731 737 740 743 749 754 758 762 763 761 761
793 791 790 788 786 784 782 780 778 776 775 773 771 769 767 766 765 766 768 769 770 772 773 772 773 773 756 740 740 736 731 733 732 732 733 734 736 737 739 739 739 741 743 745 744 745 746 746 748 752 753 754 754 759 771 773 769 767 766 765 763 759 758 756 747 734 729 734 737 738 741 738 729 722 721 722 726 730 735 739 744 750 754 758 762 761 760 761
792 790 789 787 785 783 781 779 777 775 774 771 770 768 766 765 765 766 768 769 769 768 767 766 767 762 747 737 736 732 731 733 732 732 732 732 734 736 737 738 739 742 746 751 749 746 747 750 753 758 759 759 757 759 764 764 762 762 762 764 765 762 757 751 744 735 732 738 739 740 742 737 730 725 721 722 725 730 734 739 747 752 755 759 761 760 760 761
792 790 788 785 783 781 780 778 777 775 773 770 769 767 765 765 765 765 768 768 763 756 752 754 755 750 742 736 731 732 732 731 731 730 729 730 732 735 736 738 741 744 748 752 752 747 747 756 760 759 760 758 756 756 756 758 758 759 761 763 763 762 758 748 741 734 732 740 740 736 738 733 729 726 720 721 727 731 736 742 748 753 757 759 760 760 760 760
791 789 786 784 782 780 778 777 776 774 773 771 770 770 767 766 767 766 765 761 753 750 748 746 746 743 739 734 729 732 734 732 730 727 728 729 730 736 738 739 746 750 749 748 750 747 749 760 760 755 756 753 752 752 754 757 757 759 762 763 764 763 757 745 740 735 730 740 739 733 737 731 725 724 718 719 726 730 735 740 747 752 757 759 759 760 761 761
790 788 785 783 780 778 777 775 774 773 772 771 771 772 769 766 766 765 764 759 748 745 745 741 742 739 733 732 728 731 739 738 733 728 726 728 731 737 739 739 748 752 748 748 752 755 758 761 754 748 750 750 751 752 755 758 758 761 763 766 767 761 754 743 736 733 731 739 737 732 736 730 721 720 717 720 724 727 729 732 739 747 754 758 759 760 762 763
789 786 784 781 779 777 775 774 773 771 770 770 771 770 766 762 762 763 764 762 749 738 738 738 738 735 730 730 726 730 739 738 736 729 723 728 731 734 737 741 747 748 748 750 754 762 764 754 743 743 747 751 753 752 755 759 760 762 762 767 766 757 756 750 738 732 731 734 732 730 734 728 723 720 720 726 728 728 730 731 738 744 748 754 757 760 761 762
787 785 783 780 777 775 773 772 770 769 769 769 768 765 762 760 760 761 761 762 752 735 728 728 729 727 722 722 722 728 734 731 732 727 721 726 730 732 735 738 744 748 748 748 751 759 756 740 734 741 747 750 752 752 755 760 761 759 757 760 759 751 751 748 740 734 730 728 725 730 739 735 728 725 728 735 735 734 737 740 748 751 751 756 758 759 759 757
786 784 782 779 777 773 771 771 768 769 768 766 765 762 762 759 758 760 759 763 757 735 723 720 720 716 709 715 720 722 727 727 724 722 718 721 726 731 734 734 741 748 748 746 751 756 748 734 733 741 744 747 751 752 752 757 760 758 752 748 747 745 744 741 740 741 742 738 726 730 749 747 732 727 735 742 743 746 747 748 754 757 757 759 760 759 758 757
785 783 780 779 777 772 770 769 767 768 766 764 763 762 762 758 757 759 759 768 762 736 723 719 715 710 705 712 715 717 730 727 715 714 715 717 719 724 734 735 736 743 744 743 748 750 740 731 733 738 741 744 750 751 747 750 760 760 745 736 738 740 739 739 740 746 752 747 729 726 744 749 735 733 743 746 750 756 755 754 757 759 761 760 759 758 757 758
784 782 780 779 776 774 772 769 768 768 764 763 761 761 760 756 757 756 760 776 762 730 722 718 712 708 703 706 708 720 734 722 710 712 711 715 717 717 732 738 736 738 735 740 751 744 732 731 734 736 740 744 750 750 740 741 755 754 735 728 734 736 736 737 740 748 749 742 732 725 731 742 743 748 753 749 756 764 760 759 759 758 760 758 757 756 754 755
782 780 779 778 776 776 774 771 769 766 764 762 760 760 758 755 756 754 767 780 751 717 715 713 707 704 701 704 707 714 719 711 714 716 706 711 717 718 731 735 734 735 729 739 753 740 728 732 732 733 741 746 745 738 731 734 744 738 724 724 729 730 732 734 737 744 744 742 743 731 729 744 751 754 757 752 759 769 765 761 758 755 756 756 755 754 753 755
781 779 778 776 774 774 773 771 769 765 763 761 759 759 756 756 754 756 775 773 735 711 710 708 706 705 703 708 711 710 709 708 714 713 705 711 714 716 728 729 728 733 729 734 744 735 727 726 723 727 737 739 732 725 723 730 732 724 719 724 727 729 732 733 738 742 743 750 751 736 732 748 754 752 755 758 764 769 766 761 757 754 755 755 755 754 753 755
779 777 776 775 773 772 771 770 765 762 762 760 760 757 755 756 758 770 781 761 732 718 709 708 711 707 707 715 717 714 712 711 709 709 711 714 713 714 720 720 723 731 732 732 735 731 724 720 718 721 725 723 719 718 718 721 720 718 721 728 731 735 735 737 741 743 752 759 751 737 733 743 756 755 753 756 758 759 761 762 760 757 757 757 756 754 754 754
776 775 774 773 772 771 770 767 762 761 762 760 759 757 756 760 767 781 775 745 731 724 712 715 714 706 710 717 718 716 714 713 709 712 718 717 720 723 722 725 728 734 738 737 735 730 724 722 720 714 710 711 712 715 715 714 716 719 725 731 739 744 743 745 746 747 762 765 746 736 735 740 754 757 750 749 750 749 750 753 755 754 755 757 756 755 754 755
773 771 770 769 768 768 767 763 761 762 761 760 759 757 760 769 776 780 763 740 735 727 719 724 718 710 713 714 715 715 714 715 710 713 720 722 727 728 727 731 733 741 749 745 739 734 727 723 718 711 705 705 712 719 720 717 717 723 730 737 749 756 756 759 758 756 763 758 740 734 737 744 756 755 750 749 748 746 742 741 747 751 754 756 755 755 755 756
769 767 765 764 764 763 761 760 761 762 761 760 760 759 765 777 777 767 757 747 738 726 723 725 717 714 716 716 716 712 712 715 711 713 717 721 729 729 727 726 725 735 745 743 742 740 733 724 716 714 709 703 709 722 728 725 723 727 733 739 751 761 768 772 769 765 763 752 741 736 737 751 762 754 749 749 745 743 740 740 744 749 755 758 756 755 756 756
765 764 762 761 760 759 758 759 760 761 761 759 761 764 770 777 769 758 756 750 737 728 726 725 722 718 715 715 713 711 716 716 711 714 718 722 732 734 731 727 723 728 734 739 742 741 744 738 721 716 714 706 707 714 719 720 722 725 725 731 740 747 757 765 764 763 762 753 746 744 746 760 766 755 749 748 744 744 744 744 745 748 754 757 756 756 756 755
763 761 760 759 758 757 757 759 759 760 761 760 764 770 772 771 765 759 755 746 737 735 731 727 727 724 718 714 709 710 717 717 714 718 719 724 731 731 730 727 723 724 730 742 743 737 744 740 717 708 707 704 706 707 705 715 726 725 722 730 736 732 736 751 758 756 756 756 754 755 761 766 762 754 750 749 747 749 749 749 749 751 754 755 756 757 756 753
761 759 758 757 757 757 757 758 759 760 760 761 767 772 770 765 761 756 749 742 741 741 738 734 731 729 727 719 713 713 714 715 722 726 722 721 725 725 725 722 720 722 727 736 738 735 740 734 712 706 707 702 703 703 702 712 724 725 727 731 728 721 723 743 759 756 754 762 764 765 772 771 764 758 754 753 754 753 753 754 755 756 757 758 759 758 756 752
759 757 757 756 756 757 757 757 758 760 761 763 768 770 768 761 755 752 747 743 743 742 745 748 739 732 733 729 721 720 718 718 725 731 729 726 727 728 727 721 718 721 723 726 730 729 735 734 716 710 712 704 698 701 702 703 710 721 729 725 720 724 727 736 755 763 766 772 768 768 775 776 774 771 763 761 761 758 758 760 760 761 761 761 761 758 756 753
759 758 756 754 754 756 758 758 758 760 762 766 771 770 766 760 752 749 748 745 745 744 749 754 742 730 734 736 730 725 724 726 729 731 732 734 733 729 729 725 720 720 719 721 727 725 729 737 724 709 712 706 698 705 712 706 703 710 717 715 720 734 739 741 753 765 775 779 774 773 776 776 778 778 771 769 767 764 763 763 763 764 763 762 761 758 757 756
760 759 756 754 754 755 757 759 759 761 764 770 775 771 763 759 752 748 748 747 747 747 749 748 739 731 732 733 730 726 724 727 731 731 732 736 736 730 728 727 723 721 718 718 727 727 727 738 732 713 708 708 707 717 727 722 710 707 712 716 721 729 735 740 747 754 764 776 779 776 775 779 783 782 778 773 770 769 769 766 764 765 764 763 762 762 761 762
760 760 758 755 755 756 757 760 761 764 767 771 773 768 762 758 752 747 746 746 745 745 744 740 736 735 732 728 727 725 722 725 730 732 733 735 736 732 727 725 723 723 721 719 727 729 728 737 737 721 710 715 723 726 730 729 721 718 724 728 728 728 730 737 745 746 749 762 773 772 774 784 785 781 780 774 771 773 774 772 769 766 766 767 766 767 767 768
760 762 759 755 755 756 758 762 764 765 769 770 768 765 761 757 752 747 745 744 743 740 736 734 733 733 731 728 728 725 724 726 728 730 733 733 736 734 726 721 721 723 724 726 727 729 732 737 738 731 725 729 732 724 720 725 726 727 731 733 735 734 734 742 751 750 744 750 762 764 771 786 785 778 778 774 770 771 773 776 776 771 770 771 770 770 770 770
761 762 759 755 756 756 758 764 766 766 768 767 764 760 757 753 751 749 744 742 741 736 730 728 728 729 728 728 728 725 724 727 726 728 730 728 731 731 723 717 718 719 724 733 732 727 730 736 738 738 735 735 731 722 718 721 724 728 731 733 736 734 735 743 750 751 749 752 759 760 769 784 785 778 777 774 772 773 772 775 778 777 774 773 772 771 771 771
762 762 757 755 757 756 759 766 767 767 766 763 760 758 755 753 752 749 746 744 742 736 731 729 727 728 728 726 726 724 723 724 725 727 729 727 724 721 717 716 718 720 725 734 735 727 729 738 741 740 738 734 730 726 721 720 724 731 736 737 736 734 735 740 743 744 748 755 758 761 773 786 784 779 777 775 775 776 774 775 780 781 777 774 773 772 772 773
764 763 758 757 757 757 762 768 768 768 767 764 763 760 756 754 752 750 749 747 743 739 737 733 728 728 729 726 725 724 723 726 727 725 726 727 722 716 715 715 716 719 723 728 729 725 731 742 744 745 746 742 740 738 732 729 733 739 743 742 740 736 733 737 741 739 747 756 754 756 775 788 783 778 779 776 774 777 778 780 783 782 778 776 775 774 773 774
764 763 760 758 758 759 764 768 768 769 769 768 768 763 759 755 751 749 749 746 743 741 740 736 729 729 730 727 727 727 725 726 729 728 727 727 723 718 718 717 716 719 721 722 723 724 735 743 743 748 756 755 754 751 745 743 742 744 746 744 742 740 735 737 740 739 747 758 757 761 777 786 782 780 781 780 778 780 784 786 786 783 781 780 778 778 778 777
763 763 762 762 761 761 764 766 767 768 769 771 770 766 764 760 752 747 747 745 743 740 739 737 731 731 733 732 733 736 733 728 727 729 733 733 728 724 723 721 721 723 723 723 724 730 740 747 746 749 755 755 755 752 747 746 746 749 751 747 744 744 740 740 742 744 750 758 766 774 777 780 784 784 784 785 783 784 787 788 787 785 784 785 784 782 782 783
762 763 764 764 764 765 766 766 766 767 767 769 771 770 768 765 757 750 747 746 744 740 739 739 736 737 740 740 740 743 742 736 732 734 737 737 731 728 727 726 726 725 725 727 729 731 741 752 753 753 754 754 754 748 744 746 749 752 752 751 749 745 740 741 747 755 756 754 766 779 776 776 784 785 784 787 786 787 789 790 790 789 788 789 788 786 787 788
763 763 763 763 765 767 768 766 766 767 766 767 771 773 771 768 763 757 752 748 745 742 742 744 743 742 743 742 744 748 747 743 742 742 741 740 735 731 730 731 731 728 726 730 733 734 743 756 757 754 756 758 757 753 749 750 755 757 756 756 756 751 747 748 755 763 762 755 764 777 778 780 786 788 790 792 792 794 795 794 794 793 793 793 792 791 793 794
764 764 762 762 764 767 767 766 766 767 767 767 770 772 772 770 766 760 754 750 749 746 747 751 750 745 744 743 745 751 751 749 750 748 744 743 742 737 735 736 735 731 728 731 736 737 746 758 760 756 760 762 763 763 760 757 760 764 765 765 764 762 760 760 763 768 769 768 773 780 785 791 794 795 796 796 797 798 798 797 798 798 799 799 797 798 800 799
766 766 765 764 765 766 766 767 767 768 768 769 770 772 772 771 767 762 756 754 756 753 750 753 753 747 746 747 747 752 753 752 754 751 745 745 745 740 738 738 736 735 734 735 740 741 746 757 760 757 762 768 769 768 767 765 765 768 771 770 767 765 764 766 769 770 774 781 785 786 791 798 801 799 798 798 798 799 801 803 804 805 805 804 803 804 805 804
767 766 766 766 767 768 767 767 768 768 769 770 770 769 770 770 766 763 761 756 756 756 753 754 754 749 747 748 747 749 750 749 750 748 744 744 743 739 739 738 735 736 738 739 742 744 747 757 762 759 764 773 773 772 773 770 764 766 771 774 773 769 767 769 770 770 775 784 787 787 793 801 803 802 801 801 801 804 807 808 808 810 810 808 808 810 809 809
766 765 766 766 768 770 769 767 769 770 770 771 769 766 766 767 764 763 764 758 753 753 753 752 752 751 751 750 748 746 745 745 745 742 739 739 737 735 737 737 732 733 738 741 746 749 749 754 760 762 767 775 776 776 776 770 766 774 781 782 780 774 770 771 774 773 775 780 783 786 793 801 804 803 805 808 808 810 814 813 812 814 813 811 812 812 813 813
Wind_Speed
12 11 11 11 11 11 11 11 11 11 11 11 11 10 10 9 10 10 10 11 11 13 12 13 14 14 14 15 16 16 18 22 22 15 10 16 17 12 9 6 8 8 8 10 9 5 2 5 7 7 5 2 2 2 3 4 3 2 3 4 4 6 7 3 3 5 3 9 11 11 10 4 6 3 3 5 8 9 7 6 4 7 9 10 16 24 27 26
11 12 11 12 12 12 12 11 11 11 11 11 11 10 10 9 9 9 10 10 11 12 11 12 13 14 14 14 14 15 20 22 19 16 15 15 16 14 11 11 8 5 7 11 13 10 5 5 7 6 4 1 2 2 2 3 4 4 3 4 5 8 6 2 4 7 5 8 11 14 10 1 4 5 3 3 4 7 10 6 5 10 11 12 18 24 24 24
11 12 12 12 12 12 12 12 12 12 11 11 11 11 11 10 10 10 11 11 11 12 11 12 12 13 14 14 13 15 20 17 10 11 9 8 9 15 15 14 10 8 7 8 10 13 9 5 8 7 3 1 2 2 2 3 3 4 4 4 7 9 6 5 7 7 6 7 10 15 9 3 3 2 2 5 6 6 9 5 5 8 11 13 14 17 21 22
12 11 11 12 12 12 12 12 12 12 12 12 12 12 12 11 11 11 11 11 11 11 11 12 12 13 13 13 12 14 15 8 4 5 7 8 6 8 18 18 11 10 8 6 6 11 11 5 6 6 3 2 3 2 3 4 3 3 4 5 8 6 6 9 8 7 9 8 8 12 7 6 7 1 5 9 7 1 5 9 10 13 14 15 14 14 16 16
11 11 11 12 12 12 12 12 12 13 13 13 12 12 12 12 12 11 11 11 12 11 12 12 13 13 13 13 11 11 8 3 3 4 7 8 5 2 15 21 13 10 9 7 6 8 9 4 2 3 2 3 3 2 4 6 3 3 4 7 10 6 7 10 8 9 11 10 8 8 4 4 6 4 8 10 8 4 7 9 13 17 17 18 16 14 13 13
12 12 12 12 12 13 13 13 13 13 13 13 13 13 13 13 12 12 11 11 12 11 12 11 12 12 12 12 7 4 2 2 8 8 9 10 3 1 10 20 16 11 10 10 7 5 5 2 2 3 2 3 4 5 6 6 4 4 6 7 11 9 8 9 8 9 10 9 8 8 3 1 6 2 7 7 6 9 8 7 11 14 15 17 16 14 14 13
12 13 13 13 13 13 13 13 13 13 14 14 14 13 13 13 13 12 12 12 12 11 11 11 12 11 11 10 3 1 3 6 14 9 10 8 3 2 9 16 16 14 12 11 7 5 5 4 3 3 3 4 5 6 7 7 5 6 7 8 12 10 9 10 10 11 10 9 10 9 5 2 4 5 1 2 3 7 6 8 12 12 12 14 14 12 13 13
13 13 13 13 13 14 14 14 14 14 14 14 14 14 13 13 13 12 12 12 12 11 11 10 11 10 10 8 2 2 1 10 15 9 7 4 6 6 12 15 16 16 14 14 11 7 5 5 5 3 3 5 5 5 7 6 5 6 8 9 11 10 10 11 10 10 9 8 8 8 8 5 4 1 2 3 4 8 10 11 12 13 13 12 12 12 12 11
13 13 13 14 14 14 14 15 15 15 15 15 15 15 14 14 13 13 12 12 12 11 11 10 10 7 6 4 2 3 5 8 12 10 8 8 8 9 14 14 17 18 14 15 14 9 5 5 6 5 5 7 6 7 6 4 4 6 8 9 10 10 10 10 10 11 8 5 4 5 8 7 4 2 3 2 6 10 12 12 13 14 14 12 11 12 11 11
14 14 14 14 14 15 15 15 15 15 16 16 16 16 16 15 14 14 13 13 12 10 10 8 8 6 4 2 3 1 7 7 11 7 8 10 10 12 14 13 18 20 13 12 13 10 6 6 6 4 4 5 5 7 6 4 5 6 7 8 10 10 9 8 11 12 6 5 6 5 6 8 5 1 1 3 5 12 13 12 12 13 13 12 11 10 10 10
14 14 14 14 14 15 15 15 16 16 17 17 17 17 16 16 15 15 14 14 12 10 9 7 7 4 3 2 4 3 7 4 5 2 2 8 12 13 14 14 18 21 15 10 12 15 13 12 7 1 2 4 4 6 6 5 4 6 8 9 11 10 8 7 8 10 4 4 8 8 6 5 3 2 6 7 7 10 14 13 12 12 11 11 11 10 8 7
14 14 14 15 15 15 15 16 17 18 18 18 18 17 17 16 16 16 16 14 12 9 7 6 4 1 2 1 5 12 8 2 1 6 10 9 12 13 12 14 17 21 19 10 11 20 21 17 7 1 4 4 2 4 5 4 4 6 6 6 10 9 7 7 7 8 6 5 8 8 4 4 1 5 8 10 10 9 13 13 12 11 10 10 11 8 6 7
14 15 15 15 15 15 16 17 17 18 19 19 19 18 18 17 16 16 16 14 11 9 5 4 3 1 1 1 11 20 17 13 16 19 18 15 16 16 13 14 15 17 19 15 16 22 21 16 8 6 7 5 4 4 5 5 3 6 5 2 6 7 6 6 5 6 5 5 8 7 3 6 6 10 7 9 12 11 10 11 10 8 7 8 8 7 8 9
15 15 15 15 16 16 17 17 18 19 19 20 19 20 19 18 17 16 14 11 10 7 3 2 1 3 2 6 17 22 20 22 25 23 18 15 18 20 17 17 15 15 18 19 21 21 18 17 11 7 7 6 5 3 5 5 2 4 6 3 3 3 6 7 4 3 4 4 7 7 4 6 8 11 8 9 14 13 11 10 9 8 7 6 6 9 11 11
15 16 16 16 17 17 17 18 19 20 20 21 21 21 21 19 18 15 11 8 8 5 2 2 3 2 1 9 18 18 14 15 19 21 18 15 17 17 17 19 18 18 19 19 20 19 18 16 8 4 5 5 2 2 4 4 3 1 2 4 3 3 5 7 5 4 5 4 4 7 4 5 7 12 10 9 15 15 13 10 10 10 8 9 7 10 13 11
16 16 16 17 18 18 18 18 19 20 21 22 23 22 21 20 17 12 8 7 6 4 4 1 5 5 1 6 11 12 10 9 11 13 14 18 19 18 20 19 17 18 20 20 21 18 15 11 4 4 3 3 2 1 2 4 4 2 2 4 4 3 4 6 6 5 7 4 1 5 4 4 6 11 10 8 15 13 11 10 10 10 9 11 8 9 13 11
17 17 17 18 19 19 18 19 20 21 22 23 24 24 23 20 15 10 5 3 2 4 6 1 2 4 4 8 9 10 8 8 8 9 14 17 20 23 20 12 10 13 15 18 19 13 8 5 3 2 1 2 2 4 0 4 5 4 1 3 4 4 4 4 6 5 5 5 4 4 4 5 7 9 10 9 15 13 11 12 11 9 10 10 9 9 11 11
18 19 19 19 20 19 19 19 20 22 23 24 25 25 23 16 9 3 3 5 4 3 3 2 0 2 4 6 5 6 3 4 8 10 14 15 19 25 19 8 6 8 6 8 10 5 3 2 1 2 3 2 2 5 4 5 4 3 3 2 4 4 4 5 6 5 3 4 6 6 5 9 12 10 9 6 14 15 12 11 9 10 12 11 10 11 10 10
19 20 20 21 21 20 19 19 20 22 23 25 26 23 15 7 2 4 7 6 5 2 2 4 4 2 4 6 6 8 7 9 10 11 15 16 18 21 16 8 5 5 3 2 4 4 3 1 1 3 4 5 4 5 7 4 3 5 5 3 4 5 5 7 8 5 3 3 7 8 7 11 14 11 10 5 10 15 11 9 9 9 11 11 11 10 9 10
19 21 21 21 21 20 19 19 20 21 23 25 26 18 6 2 4 2 2 3 5 5 5 6 9 7 8 10 11 12 13 13 9 13 19 18 15 12 8 5 3 4 4 4 4 3 4 3 5 6 6 6 7 7 7 5 5 6 6 5 5 5 6 8 8 7 4 4 7 10 10 13 14 12 13 7 8 11 11 12 11 10 10 11 12 11 10 10
20 21 21 22 22 20 19 19 19 21 22 22 18 9 0 0 2 3 2 5 9 10 11 11 13 14 14 15 17 11 8 10 8 9 21 20 12 8 3 4 4 4 5 6 4 1 3 6 8 7 8 8 9 8 7 6 7 7 6 7 7 5 8 10 7 7 4 4 8 10 11 15 14 13 14 8 7 9 13 15 14 14 12 11 13 12 10 8
21 21 22 22 21 20 19 19 20 20 18 13 7 1 3 6 6 5 4 5 9 11 15 15 14 15 17 21 27 15 3 7 11 7 15 16 9 6 4 4 5 5 5 4 2 1 2 6 10 11 9 9 8 7 7 7 7 7 5 4 6 5 6 9 6 6 3 3 7 8 10 14 15 14 12 6 3 4 13 19 18 18 16 13 13 12 11 11
21 22 22 21 21 21 19 19 21 15 9 7 4 5 7 16 18 12 4 4 9 8 12 13 12 13 14 18 24 16 6 8 9 8 12 14 7 7 6 4 6 5 4 4 4 3 3 8 11 11 8 7 8 8 6 5 4 5 5 3 6 5 3 6 5 5 3 4 7 7 9 9 9 10 5 4 4 5 9 16 15 16 17 15 13 12 13 15
22 22 21 21 22 21 19 21 16 5 8 13 12 11 15 24 25 14 3 2 8 6 9 14 12 11 16 15 12 11 9 8 7 8 12 14 6 5 6 5 6 5 4 6 7 6 9 12 6 6 7 8 9 8 5 4 4 6 7 7 7 5 5 7 6 6 7 7 3 4 4 4 5 6 1 7 9 10 10 14 13 11 13 13 11 11 13 14
22 22 21 21 21 21 22 18 7 3 15 16 12 14 19 22 23 10 2 1 6 5 6 11 9 9 16 14 10 9 7 8 8 8 11 14 8 6 5 4 5 5 6 8 7 6 13 13 3 5 8 9 8 8 7 6 5 6 7 9 9 6 6 8 6 5 6 7 3 5 5 3 5 0 4 5 8 10 9 14 15 12 12 11 11 10 10 11
21 21 20 20 20 24 21 8 5 13 17 10 8 18 16 16 21 9 3 3 5 4 3 5 5 7 9 10 10 7 3 5 11 13 12 17 14 9 4 2 3 5 7 6 4 3 9 9 5 8 9 8 9 9 7 8 5 6 6 8 8 6 4 7 6 4 1 4 4 4 6 3 4 5 6 7 10 10 9 13 15 13 11 10 10 10 9 9
21 19 19 19 19 21 13 5 13 16 8 6 15 20 13 14 20 8 2 4 5 4 3 2 2 5 6 8 12 9 3 4 7 11 13 18 14 7 6 5 3 5 5 3 2 3 7 8 6 8 8 7 7 7 8 9 7 6 6 7 6 3 5 7 5 3 3 4 5 3 4 3 3 3 6 10 12 10 11 14 14 12 12 11 11 12 12 12
20 19 18 19 18 16 10 12 15 9 3 12 20 18 13 16 15 4 3 2 5 3 2 2 2 4 3 7 13 9 5 4 5 6 12 20 14 5 6 7 6 8 6 5 5 5 5 8 10 8 7 6 6 10 11 9 7 7 6 7 5 4 7 6 5 5 3 2 5 6 3 4 1 2 3 9 11 9 10 13 14 13 13 12 12 13 12 10
20 19 19 19 19 13 6 10 11 6 8 17 19 17 15 13 8 2 4 0 3 2 1 1 1 2 2 6 10 8 5 3 3 3 8 17 15 6 4 7 8 9 6 6 6 7 4 8 11 8 6 6 9 13 10 10 8 7 5 4 2 3 5 4 4 4 2 1 5 6 2 3 2 3 3 6 6 8 8 8 9 10 10 10 11 12 12 9
21 21 20 18 19 12 4 10 14 8 10 17 17 16 12 7 4 4 1 3 3 3 2 1 1 1 5 7 6 8 7 2 2 3 4 7 10 6 3 4 5 4 3 3 5 8 7 7 7 6 6 8 9 9 9 12 9 3 3 2 2 2 1 1 2 1 2 2 7 6 3 5 1 3 2 2 4 10 10 7 7 8 8 9 9 10 12 10
23 24 22 18 17 11 5 8 8 4 9 16 16 12 6 4 4 4 2 3 3 4 1 3 4 1 6 9 7 7 9 5 2 5 3 2 5 3 0 2 3 1 2 3 4 7 8 7 5 5 6 6 6 4 4 6 5 4 3 1 1 4 3 2 3 3 3 3 6 6 5 7 1 4 3 3 4 13 15 13 14 13 11 9 8 8 10 10
25 25 24 20 16 13 10 7 4 5 8 12 11 6 4 3 2 2 4 4 3 2 2 4 6 5 1 4 6 7 8 5 3 5 4 4 5 5 4 4 5 2 3 3 3 5 6 6 6 5 5 5 5 3 3 3 2 3 2 3 2 3 2 2 3 0 2 4 6 5 4 4 2 4 5 5 6 16 15 13 15 13 11 9 8 9 8 8
26 24 20 15 12 14 14 9 6 5 6 8 6 4 6 4 2 5 5 3 1 2 5 6 10 8 3 4 3 5 6 5 4 5 6 5 5 7 7 7 6 4 3 4 2 3 5 6 5 3 3 2 7 4 2 3 0 3 3 4 4 2 1 1 3 1 1 4 6 4 3 2 3 3 5 7 6 14 10 9 11 9 8 8 8 8 8 9
24 20 13 10 9 11 11 6 1 0 5 7 4 4 5 3 4 5 5 5 4 7 9 10 14 12 5 6 3 3 2 4 2 4 6 5 4 5 5 6 6 5 2 2 2 3 3 5 4 3 4 2 5 6 6 4 3 3 3 5 5 4 4 2 3 2 2 3 4 4 1 2 2 2 6 6 3 6 3 5 7 8 8 8 8 8 9 10
20 14 10 9 8 8 4 4 6 3 4 5 5 4 3 4 3 2 3 4 3 7 12 12 12 9 6 4 3 4 1 2 2 1 4 6 6 6 5 6 7 5 4 2 3 2 4 6 7 6 5 6 6 6 6 6 1 4 2 4 3 5 5 2 3 4 3 0 3 2 1 0 2 2 6 5 5 5 4 5 7 8 9 9 8 8 9 9
19 13 7 7 5 2 4 12 11 6 4 5 5 2 3 4 3 2 2 4 4 8 13 12 7 3 5 4 2 3 2 1 3 4 1 4 6 4 4 3 3 4 4 4 3 1 3 5 7 4 2 5 9 7 6 7 3 2 1 3 4 4 7 5 1 1 4 2 3 1 2 1 1 2 7 6 5 6 5 6 7 8 8 7 5 6 7 7
20 14 5 5 4 5 11 14 13 9 4 5 4 3 4 3 3 3 4 7 7 8 7 6 5 3 3 4 3 3 1 1 1 0 2 2 1 1 2 1 3 2 2 3 3 3 3 5 7 3 5 7 7 5 3 6 6 3 1 4 2 3 4 4 2 3 5 1 4 2 3 2 1 1 4 6 3 4 5 5 6 6 6 5 4 5 5 4
18 11 5 4 4 11 14 14 13 8 4 5 2 2 3 2 3 4 6 8 8 7 5 3 3 3 3 3 5 5 2 2 2 4 0 2 1 3 2 1 3 2 2 1 2 2 3 3 7 5 5 6 0 2 3 4 1 4 4 3 2 2 0 1 2 2 2 2 2 3 1 2 2 0 4 5 3 0 3 5 6 5 4 4 3 4 3 3
10 5 3 2 6 13 15 15 10 4 5 3 0 2 2 3 4 5 6 7 6 5 4 4 4 3 5 4 3 2 2 4 3 3 1 1 2 3 2 2 0 2 3 3 3 2 1 2 5 6 4 2 4 3 1 5 5 3 2 2 2 3 4 2 2 4 4 3 2 1 1 1 0 3 5 6 6 4 3 3 5 4 3 2 1 1 1 3
2 2 2 3 9 14 17 13 5 4 3 2 2 2 3 4 5 7 7 7 5 4 4 6 4 3 6 4 2 3 2 2 2 1 0 1 1 3 3 3 0 2 5 6 2 1 3 2 4 6 5 2 2 0 2 1 1 3 4 3 2 1 3 2 1 2 4 5 3 2 2 2 1 3 5 4 1 5 6 4 2 4 5 5 5 5 6 6
1 3 2 5 12 17 16 8 2 2 2 1 2 3 4 4 6 8 8 7 6 5 7 9 5 3 4 2 3 4 2 1 2 2 1 1 1 1 3 3 2 2 3 5 3 0 1 1 3 3 4 3 1 3 6 7 4 4 3 2 1 2 4 4 1 2 2 4 4 4 3 1 3 3 4 2 6 7 6 6 5 5 7 7 7 8 6 5
2 1 2 6 11 15 10 3 1 2 1 2 2 4 5 5 6 7 7 7 6 6 6 6 3 2 2 1 2 4 4 1 2 2 1 2 4 5 5 5 4 5 3 1 2 1 2 3 2 1 1 1 2 1 9 12 8 6 3 1 2 2 4 5 4 3 1 2 2 3 3 0 3 3 3 5 6 6 7 6 5 5 6 7 8 8 7 5
2 1 2 5 9 9 6 2 3 1 1 3 3 5 5 4 4 5 5 6 5 5 5 3 2 2 1 2 3 4 5 2 2 2 1 2 4 7 6 5 5 6 4 2 2 2 1 3 2 2 3 2 3 3 5 8 7 6 3 3 3 1 3 5 5 4 3 2 1 3 2 1 2 3 3 6 7 7 8 7 4 3 5 7 8 8 8 8
1 3 2 4 7 5 4 1 2 2 3 3 4 4 4 3 4 5 5 4 4 4 5 4 2 2 2 4 3 4 6 3 3 2 1 1 2 4 2 5 5 4 3 4 3 1 0 1 2 3 3 3 3 3 4 5 4 4 1 4 3 2 3 2 1 3 3 2 3 5 2 2 0 2 3 6 9 9 9 6 2 2 5 7 7 8 9 9
1 1 2 1 3 3 3 2 3 2 3 3 4 5 5 4 4 4 3 4 3 3 3 4 3 4 4 5 4 5 6 2 2 3 4 2 3 5 3 2 2 3 2 3 3 2 2 1 2 5 3 2 2 4 3 0 2 2 1 4 5 5 5 2 2 4 2 2 3 5 4 3 3 4 5 6 8 9 7 5 3 4 6 6 7 8 8 9
2 1 2 3 4 4 2 0 3 2 1 2 2 4 5 5 4 4 2 2 4 5 3 4 5 6 6 6 5 6 7 4 2 3 4 4 3 4 7 8 7 7 7 8 7 5 3 1 2 5 5 4 3 5 5 1 3 3 2 5 6 4 5 4 3 2 2 2 3 1 5 8 6 5 7 7 7 8 6 4 4 6 7 7 7 8 9 9
2 1 1 1 2 3 2 3 2 2 1 2 2 3 5 6 5 4 3 2 4 6 3 4 7 7 5 5 4 5 6 6 5 5 4 4 2 2 7 9 8 8 8 8 6 4 4 3 3 3 2 2 4 4 3 1 3 4 4 4 5 4 6 7 3 0 2 4 2 2 6 9 7 6 8 7 6 7 6 5 5 6 7 7 8 10 11 11
1 1 1 3 1 0 1 2 1 2 2 2 1 2 4 7 7 4 3 3 4 7 5 4 8 8 7 5 4 3 6 5 5 4 4 5 4 4 6 5 5 6 6 4 4 4 5 2 3 4 4 7 9 8 4 4 5 4 5 5 5 6 7 6 1 2 1 4 4 6 7 7 6 6 6 6 6 6 7 7 7 9 9 9 10 12 12 11
2 1 2 2 2 3 2 2 2 4 4 2 1 3 4 7 8 5 4 3 4 8 6 5 7 7 8 7 5 4 4 3 4 4 3 5 5 3 3 3 3 5 5 4 4 3 4 2 3 4 5 8 11 11 6 4 7 7 7 6 6 8 9 8 5 6 9 8 8 10 11 7 5 5 6 6 6 6 7 7 9 11 11 11 12 12 11 11
1 0 2 2 3 0 1 2 3 4 3 3 2 1 2 5 7 6 5 4 4 6 6 6 7 6 6 7 5 4 2 1 2 4 2 4 4 2 2 1 1 3 4 3 3 4 3 1 1 4 4 5 8 9 5 5 10 9 8 9 7 7 9 8 7 9 10 9 9 12 11 7 3 3 6 6 6 8 9 10 10 10 9 11 13 12 11 12
1 1 0 3 2 3 1 0 2 3 2 3 1 1 1 4 5 5 4 4 3 4 5 5 6 5 5 7 6 4 4 3 5 8 6 3 3 2 0 1 1 2 2 2 2 3 3 1 1 4 4 2 4 6 5 1 9 10 10 11 10 5 6 5 3 4 6 8 10 9 7 4 2 2 6 7 10 12 12 10 10 8 8 11 13 11 11 11
5 2 3 4 2 3 1 1 2 3 1 1 2 2 0 1 4 2 1 4 5 5 5 4 5 4 4 6 7 7 8 6 7 9 7 5 6 4 3 4 3 4 2 2 3 1 2 4 2 3 3 0 3 4 5 3 5 7 7 9 8 2 5 6 5 5 4 6 7 5 4 5 5 5 7 9 11 12 9 8 9 8 8 10 10 9 10 10
Wind_Direction
352 351 350 347 345 343 341 338 337 335 334 333 332 328 318 313 307 304 304 302 306 305 309 314 317 321 320 324 326 328 325 318 315 304 260 263 273 261 235 178 148 163 196 218 211 219 207 187 207 201 186 196 193 220 218 195 201 198 178 210 224 243 245 166 183 241 258 294 300 315 328 80 102 107 117 45 56 83 77 44 48 49 65 106 119 131 139 140
352 350 349 348 345 342 339 337 336 335 334 333 333 330 324 322 316 314 311 305 307 304 309 315 316 320 319 327 334 335 326 316 306 279 266 278 273 254 221 184 160 159 183 196 203 202 174 178 196 176 151 158 225 219 218 211 189 185 184 194 219 234 239 140 219 253 283 293 305 311 305 41 110 165 160 106 111 97 82 42 49 77 85 103 118 129 136 142
352 350 348 348 345 342 340 337 336 334 334 334 332 333 333 332 328 324 319 313 311 309 312 314 316 319 322 331 339 337 325 316 302 268 290 335 278 241 206 186 180 180 188 193 201 200 193 189 179 157 127 192 256 233 240 254 215 204 191 203 236 241 264 277 257 267 281 281 299 300 296 357 347 202 138 120 128 109 116 129 97 107 125 126 128 132 139 144
352 350 347 347 345 342 339 336 335 334 333 334 334 336 336 335 334 328 323 318 315 315 315 317 319 320 324 333 339 336 326 317 286 278 339 355 310 238 194 185 179 182 197 211 212 206 211 216 179 162 141 207 266 238 237 244 235 228 183 211 243 246 275 269 263 274 274 275 282 289 316 348 322 51 122 128 112 68 168 171 155 150 149 139 140 140 143 146
352 349 347 346 344 341 338 336 335 334 334 335 336 335 336 336 335 331 326 323 321 321 320 319 320 321 326 334 339 334 336 2 295 295 356 352 338 271 191 186 183 190 201 210 214 207 218 241 186 179 167 210 247 222 243 233 221 267 228 231 250 244 259 265 266 263 266 275 275 286 330 322 311 92 144 153 137 197 207 188 165 155 153 148 147 143 143 146
350 348 347 345 344 341 337 337 335 335 335 334 335 335 336 334 333 333 330 326 324 323 324 321 322 324 328 338 342 336 9 309 298 290 314 324 327 16 179 185 188 192 204 205 201 196 207 207 164 194 190 214 225 216 248 239 187 245 266 254 257 250 247 264 265 259 264 271 271 280 272 235 334 42 172 194 176 194 194 167 152 147 148 143 141 144 146 149
349 348 347 345 344 340 337 336 334 334 333 333 334 334 333 332 332 333 333 331 327 324 324 321 324 325 331 349 352 39 88 260 281 287 297 299 236 151 151 177 188 191 201 197 189 187 177 168 174 182 197 227 225 221 243 248 197 213 259 260 260 257 247 254 253 256 261 261 265 268 250 165 334 332 182 207 175 165 133 125 134 132 133 132 135 143 148 152
348 347 345 344 342 339 337 335 334 333 332 333 332 332 331 329 329 330 333 333 328 326 324 323 326 328 338 358 32 4 248 254 275 285 283 245 188 167 153 171 186 189 194 193 189 181 167 175 201 184 202 234 225 230 238 250 244 225 244 256 263 263 254 253 244 246 246 250 262 256 256 227 201 291 78 132 130 119 118 125 129 128 132 134 139 146 150 157
346 345 344 343 341 339 338 335 334 333 332 332 330 332 330 329 330 330 331 330 329 325 320 324 322 331 354 359 53 342 260 265 298 287 256 216 190 177 170 175 184 186 189 197 193 178 171 184 207 193 201 236 235 248 243 229 250 231 234 249 259 265 263 261 254 249 234 230 252 246 262 259 213 145 88 160 138 124 130 133 134 136 141 144 148 153 154 162
344 344 343 342 341 339 337 335 334 332 331 329 328 332 332 334 335 331 330 326 327 323 317 323 319 334 3 346 92 332 260 302 326 288 234 214 196 181 182 185 185 186 184 193 195 189 196 202 209 202 221 242 226 247 246 211 239 245 252 261 257 264 268 262 262 259 244 218 217 202 243 270 281 211 159 241 159 136 133 135 143 144 149 153 151 156 157 164
342 343 341 340 339 337 336 334 333 331 330 328 329 331 333 336 335 331 330 324 320 318 314 313 319 349 3 24 112 227 260 301 349 2 249 220 201 193 197 198 190 189 184 184 202 207 213 225 228 184 261 253 227 255 255 226 258 269 269 280 273 274 279 273 269 263 255 226 207 184 212 258 313 245 196 193 170 149 141 144 155 152 153 158 154 157 159 147
341 340 339 338 337 335 335 335 333 331 330 330 330 330 332 333 333 330 326 325 320 311 309 304 308 19 355 1 201 236 245 186 293 322 306 264 229 225 215 208 200 195 190 181 206 213 217 231 234 193 251 271 286 276 269 262 293 289 278 283 282 290 287 270 268 260 250 230 204 179 229 287 287 242 210 170 163 161 149 150 160 159 157 159 157 150 129 105
339 338 338 336 335 334 335 335 333 331 330 329 328 328 329 328 328 326 321 324 319 300 292 294 285 141 25 251 239 257 266 268 278 287 285 273 255 249 230 214 212 208 204 196 206 214 220 233 227 225 247 258 268 264 286 300 323 308 302 273 284 308 294 258 244 252 244 216 189 167 243 277 255 252 235 168 162 159 153 160 160 154 155 155 145 117 98 96
337 336 336 334 334 333 335 335 332 331 330 327 327 325 325 326 324 318 314 316 310 293 263 267 284 120 139 256 269 279 286 284 280 273 265 255 250 252 241 221 214 219 217 213 216 221 233 242 235 239 248 225 234 290 321 322 344 313 310 305 282 280 278 276 264 257 269 240 171 155 215 248 254 260 244 174 165 161 161 169 156 149 150 133 117 108 103 101
336 335 335 333 332 333 334 334 331 330 329 326 325 324 323 324 318 309 306 304 298 281 209 222 218 161 9 275 280 294 300 289 271 259 248 233 231 244 242 222 214 223 224 224 227 233 245 251 247 244 256 240 222 2 335 325 335 314 292 304 298 234 275 292 277 232 245 272 150 150 214 249 250 255 245 175 167 169 162 166 158 154 140 117 114 112 110 112
335 334 333 331 330 333 334 332 331 328 327 326 324 324 323 320 309 295 287 287 287 238 177 210 211 187 305 277 292 307 287 263 258 252 233 213 212 226 232 222 218 224 225 230 235 242 251 255 250 216 244 274 221 130 336 330 324 327 180 250 272 265 292 302 286 237 209 243 237 172 200 250 253 251 248 173 169 175 159 165 166 152 130 121 124 116 120 127
335 334 331 330 329 332 333 331 330 327 326 326 324 324 322 316 300 279 272 273 276 194 170 151 193 180 257 270 296 304 266 243 251 243 227 216 212 220 224 217 220 223 222 231 237 242 249 249 242 237 300 278 181 120 155 268 266 292 307 243 260 256 264 286 298 286 221 220 248 230 206 234 248 245 244 182 167 175 163 170 165 133 120 124 124 123 131 134
334 332 330 329 328 330 331 330 329 326 327 327 326 326 322 316 302 263 160 140 121 133 188 285 273 173 265 261 272 281 266 269 259 232 224 222 213 214 212 205 221 217 207 229 239 241 239 263 280 267 301 249 175 127 190 230 208 228 258 248 277 280 265 264 276 293 272 247 249 248 238 243 250 246 248 204 163 171 174 169 146 120 125 128 126 133 138 138
333 332 330 328 328 329 329 329 327 327 331 327 325 329 325 323 16 116 131 143 132 109 240 232 182 174 269 255 245 265 296 299 269 233 221 218 207 207 207 210 220 196 170 200 254 252 201 292 312 234 253 233 216 192 202 217 176 221 252 228 253 277 273 262 259 265 248 258 257 242 233 238 244 242 247 233 162 170 168 136 117 120 129 128 131 138 141 144
333 332 330 327 326 327 328 328 326 329 334 328 327 337 343 15 34 77 122 185 208 221 249 220 194 219 267 274 272 279 301 302 265 217 216 216 200 197 202 203 205 187 174 165 225 253 152 191 245 223 224 221 226 228 217 225 226 249 280 267 263 267 271 270 268 273 228 216 251 236 231 238 238 239 241 224 149 160 152 127 131 140 135 135 140 144 150 152
332 331 329 327 325 325 326 325 325 330 330 322 326 343 19 62 2 320 306 240 233 228 247 241 210 224 245 258 271 284 321 311 290 222 216 213 186 174 196 179 179 207 204 179 197 281 142 199 239 224 216 217 224 229 219 231 239 246 259 266 277 266 268 272 263 267 222 195 256 235 222 240 236 233 239 214 148 160 155 144 148 146 136 137 140 143 149 143
331 330 328 327 325 324 324 323 327 329 323 318 327 296 248 287 293 313 332 278 261 222 230 245 229 236 242 247 260 268 313 282 288 275 214 200 171 171 195 172 176 213 215 169 153 286 227 231 241 228 214 213 229 231 212 225 236 240 247 266 277 267 282 283 260 252 206 179 265 239 210 234 234 227 240 234 180 177 162 156 153 147 140 142 145 144 144 140
329 330 330 327 325 324 323 325 328 327 327 337 304 236 286 313 310 308 311 287 281 231 215 233 230 241 240 242 252 245 232 240 258 272 206 181 174 178 179 177 184 203 203 177 176 193 238 247 236 223 207 203 236 244 221 230 243 236 238 250 261 256 275 285 278 288 286 242 246 222 206 231 239 236 268 11 57 79 135 144 139 141 141 144 149 147 151 152
329 331 330 327 326 325 325 328 327 330 346 328 287 277 317 328 323 309 262 264 284 257 217 218 214 232 233 229 229 208 215 224 226 253 200 175 170 160 175 188 180 199 203 193 187 188 238 249 220 181 198 203 227 247 231 226 251 243 228 224 238 230 217 247 282 319 322 302 255 153 177 245 262 241 307 42 68 82 104 116 113 124 130 135 149 158 166 163
330 331 329 328 329 326 327 329 325 330 331 315 286 316 333 332 332 322 157 38 290 268 225 213 204 233 229 211 194 180 198 218 222 235 192 177 173 150 189 196 166 210 212 198 190 200 245 251 177 160 211 206 216 244 226 196 231 260 232 217 210 198 221 259 299 346 356 328 313 108 126 244 288 273 101 72 80 87 101 115 119 129 133 145 161 168 171 166
330 329 328 329 329 331 334 334 320 324 323 305 313 339 335 332 338 326 144 46 298 261 217 194 181 213 206 182 181 164 157 225 220 219 195 184 180 153 176 203 159 215 207 194 193 207 247 247 189 192 213 208 215 241 227 181 195 256 235 208 189 175 240 279 310 352 5 283 278 100 121 204 321 36 102 113 98 99 116 125 132 143 149 163 166 165 167 167
327 325 327 327 329 337 340 306 315 322 315 320 341 345 337 337 339 317 131 34 292 247 190 193 184 191 181 169 162 144 193 230 199 208 190 183 185 146 162 190 172 211 196 163 205 225 233 241 226 205 205 211 215 239 226 176 176 244 233 201 189 202 263 274 294 295 236 260 302 10 96 121 355 28 120 112 95 105 133 139 148 156 161 168 165 170 175 172
325 323 324 323 325 332 313 288 306 312 312 338 346 348 341 341 338 316 100 34 270 250 166 211 197 184 173 159 155 158 221 187 155 210 175 174 184 140 169 198 185 209 200 158 213 250 221 224 233 214 199 206 214 231 221 172 185 241 223 200 202 225 244 255 270 274 272 290 306 321 38 86 312 289 109 98 98 125 153 156 161 164 166 167 167 175 177 172
325 322 320 320 323 326 296 269 276 283 330 344 349 345 340 341 343 40 89 323 271 305 236 183 154 190 130 139 166 198 232 137 159 217 152 170 186 157 181 210 195 216 218 166 210 262 241 223 230 213 192 201 218 229 209 170 205 237 208 203 198 204 233 253 243 252 342 333 261 279 25 87 275 294 72 86 112 147 166 170 171 171 169 166 170 174 170 170
326 320 318 317 316 317 290 268 270 287 339 345 343 337 339 349 29 65 77 252 282 294 265 60 12 166 138 145 184 215 220 209 158 137 114 171 188 166 166 193 181 211 249 212 230 258 258 250 243 217 202 201 208 216 190 182 202 196 150 213 280 277 277 275 247 137 91 259 251 245 162 118 288 293 141 141 164 160 159 170 185 184 174 172 177 170 165 173
325 320 317 311 302 298 287 279 284 335 349 340 337 339 355 25 63 93 218 258 288 282 340 18 320 299 152 167 184 202 213 225 133 126 125 156 176 191 214 160 169 179 311 290 272 276 279 270 252 229 214 188 179 212 205 190 188 142 124 134 285 311 14 29 337 62 120 246 257 235 157 123 165 261 256 276 194 167 163 172 183 183 176 174 175 166 166 172
323 319 315 305 286 263 249 265 311 340 336 341 346 2 63 55 42 185 245 307 316 271 33 358 314 321 248 199 186 182 195 215 164 143 154 152 168 197 203 188 181 198 277 268 274 295 293 263 249 247 228 160 146 221 294 349 60 132 122 95 126 286 359 10 305 177 174 242 252 232 139 119 228 242 290 316 186 176 174 171 174 174 168 166 167 166 167 165
321 319 316 304 279 254 256 284 314 312 343 6 6 37 82 88 232 224 241 281 312 352 354 332 323 327 289 254 233 185 188 206 189 163 165 161 174 199 217 214 172 152 215 223 232 276 290 291 285 273 269 145 131 159 261 319 75 152 162 143 162 201 106 277 270 264 225 239 259 264 138 127 280 261 319 327 192 182 174 154 158 155 149 158 165 163 165 167
323 325 318 296 281 276 282 299 301 2 15 21 38 66 90 145 238 234 238 258 284 323 333 333 329 324 276 226 205 137 183 221 183 159 165 153 167 201 227 234 195 148 154 219 218 195 227 288 279 218 242 199 154 172 183 175 164 199 194 148 158 168 147 204 224 177 229 247 296 312 131 141 213 247 318 329 170 162 124 122 139 127 130 152 161 163 172 173
328 331 310 283 285 303 305 142 135 106 48 45 65 75 139 198 254 246 238 272 302 323 328 332 326 315 296 258 174 112 119 253 3 51 172 167 177 194 201 219 214 174 135 181 248 186 185 244 253 230 211 183 189 201 170 138 164 246 173 105 175 189 151 148 185 164 163 240 335 338 49 103 207 262 333 2 98 102 75 88 111 122 141 157 159 166 177 177
333 338 312 274 278 317 130 137 133 124 102 75 77 119 207 210 234 225 265 315 342 340 332 333 335 321 321 317 218 185 183 154 20 359 292 190 179 190 200 199 200 187 163 175 219 205 175 248 274 285 267 206 201 200 165 147 178 254 120 159 217 179 128 125 204 48 76 85 288 347 87 1 321 354 350 10 78 92 85 91 105 126 146 153 154 166 177 176
335 342 321 263 245 154 143 142 139 135 105 78 106 200 230 225 237 257 316 326 328 333 334 335 332 317 321 334 328 312 284 130 110 31 319 280 205 312 289 355 79 107 234 199 209 230 187 251 284 295 291 265 213 191 194 167 153 129 177 217 207 70 82 112 137 25 51 160 276 356 118 145 72 9 340 352 48 89 77 87 108 123 136 143 156 168 178 168
329 332 315 287 190 157 151 147 147 139 85 68 94 248 241 235 280 302 313 317 316 318 322 300 271 286 322 324 334 343 311 261 192 173 155 351 291 316 311 301 81 93 278 214 182 258 189 239 289 272 250 277 310 122 289 292 183 148 178 196 106 97 290 58 119 120 109 178 284 335 29 122 112 354 333 326 286 275 70 98 115 120 131 142 162 173 170 129
323 334 326 7 134 159 165 158 150 111 61 71 235 267 252 263 284 288 290 298 300 296 291 258 238 289 317 294 309 339 224 221 210 189 179 101 239 282 288 254 44 47 354 59 132 273 87 161 284 286 258 309 29 48 299 304 327 24 56 13 40 140 163 163 150 147 146 164 209 301 356 107 113 320 307 281 274 313 3 92 110 108 105 97 111 114 46 59
305 20 312 142 137 159 167 160 133 56 74 148 207 232 274 286 282 283 286 290 289 278 265 266 269 294 294 279 300 316 249 180 137 166 250 80 228 273 257 232 173 40 20 40 89 285 19 104 243 292 325 29 34 325 150 175 338 60 62 23 348 38 114 135 169 123 130 146 168 175 186 251 304 323 299 270 70 28 1 352 30 70 59 44 42 37 28 23
108 22 273 159 151 160 156 145 71 69 124 229 228 235 271 280 283 294 300 299 288 257 245 255 256 240 266 313 359 331 335 93 117 117 124 104 131 262 265 233 154 88 30 27 34 36 47 118 198 294 359 49 232 207 120 102 93 105 118 138 162 140 113 116 238 290 96 127 156 163 165 278 334 332 315 42 87 73 38 4 0 45 56 48 50 52 45 33
73 31 214 153 156 159 139 104 303 128 162 258 246 265 289 286 287 299 306 308 296 268 256 256 252 242 255 330 353 345 350 263 173 120 143 198 180 196 235 232 154 111 110 83 314 231 140 102 102 272 287 114 267 219 107 103 93 80 64 86 105 113 110 124 191 228 65 81 110 112 116 57 331 334 7 58 71 74 69 49 18 38 64 70 70 66 59 56
80 308 231 157 162 152 102 38 318 8 244 263 283 291 301 299 294 299 303 312 307 294 297 294 321 337 346 352 336 350 354 333 138 109 272 243 215 209 205 186 137 102 108 153 275 269 107 77 63 317 296 302 293 315 63 77 81 72 9 347 38 79 129 140 176 169 126 136 123 84 91 196 319 342 27 66 65 58 60 56 32 28 65 79 80 73 62 53
211 282 267 157 162 136 76 97 289 313 275 305 332 310 306 298 293 302 304 306 308 312 313 307 333 359 342 335 335 2 1 12 91 60 295 213 258 268 192 163 143 109 138 176 200 231 117 82 83 63 0 345 311 293 355 25 55 87 323 320 355 21 65 91 133 91 98 189 152 122 157 222 242 12 30 60 64 52 37 29 23 63 76 81 79 72 66 62
51 291 299 48 118 87 68 158 176 229 285 345 345 318 321 308 290 302 291 274 295 332 320 299 342 34 10 354 8 21 11 24 95 4 337 12 0 344 15 108 104 77 112 145 124 99 114 169 113 107 143 180 191 224 240 307 78 84 348 349 12 25 38 73 122 82 102 209 102 108 162 166 109 72 54 55 70 69 43 10 10 54 63 68 73 71 65 65
72 64 328 348 22 51 47 139 120 137 256 36 13 322 320 316 302 302 296 287 324 350 349 325 4 35 19 11 35 29 8 352 35 44 10 8 359 356 31 48 50 51 49 44 51 75 101 95 75 113 154 180 196 229 242 213 101 96 50 20 20 17 36 71 97 89 161 152 61 86 158 132 115 100 86 79 88 94 78 35 31 51 53 51 63 74 68 62
81 95 88 348 342 18 9 341 52 95 194 132 76 321 313 322 321 325 342 331 328 344 356 4 20 38 21 11 49 34 354 347 22 41 7 349 336 356 37 50 48 50 55 38 29 78 98 48 24 82 107 338 327 310 313 43 83 110 111 58 36 29 50 70 77 264 156 113 69 202 146 122 121 118 109 106 105 101 83 58 50 56 58 55 59 65 63 59
99 136 148 135 139 347 21 350 27 56 38 118 111 335 333 339 341 347 337 304 341 5 20 11 13 34 34 29 73 41 354 355 14 5 348 352 344 351 23 35 24 37 63 43 12 80 102 49 6 46 32 6 2 357 15 76 74 74 94 90 77 69 74 89 105 283 120 118 152 157 124 106 106 98 90 82 76 79 76 69 68 67 64 61 61 59 54 52
69 27 298 87 109 187 181 9 33 56 37 52 61 356 354 352 347 342 330 325 3 12 29 28 0 14 34 42 80 68 23 25 359 330 343 0 342 343 23 17 352 6 44 54 21 56 96 53 22 68 53 26 18 357 345 92 88 64 54 56 74 83 83 86 86 78 77 83 110 116 99 80 67 73 79 72 66 77 76 63 59 64 66 65 63 59 52 49
76 58 296 36 42 245 165 18 42 73 31 15 53 327 340 1 344 329 340 8 18 359 12 30 1 353 27 40 61 80 71 79 300 278 289 356 344 352 30 355 266 353 18 66 29 19 65 82 310 86 74 29 20 2 347 98 94 71 39 19 28 71 78 73 82 86 80 80 95 100 95 79 46 69 92 80 66 68 65 55 50 53 62 68 67 62 55 50
345 227 96 86 38 327 322 20 69 84 17 358 102 231 354 16 332 325 340 340 2 7 1 16 5 349 16 27 23 0 326 320 281 265 254 261 269 247 73 258 157 66 17 71 63 31 75 92 348 66 78 346 359 1 323 99 83 61 29 2 352 24 80 75 63 77 102 122 119 106 102 114 123 100 88 77 71 66 57 55 58 51 55 67 68 64 59 54
2 348 34 92 99 339 345 123 46 63 11 294 229 242 206 210 262 295 8 312 332 2 350 8 28 9 5 9 349 310 298 298 282 273 260 242 246 228 201 240 221 152 134 85 71 85 135 117 87 80 95 313 335 345 286 276 62 44 356 335 322 324 95 81 45 41 71 120 130 124 125 136 140 117 88 77 79 76 65 61 65 55 51 63 68 67 62 58